Change the Weather History Date:

Saturday, October 6, 2012

  Actual Average Record
Temperature  
Mean Temperature 48 °F 59 °F  
Max Temperature 57 °F 70 °F 91 °F (1941)
Min Temperature 38 °F 49 °F 29 °F (1980)
Degree Days  
Heating Degree Days 17 7  
Month to date heating degree days 29 38  
Since 1 July heating degree days 106 96  
Cooling Degree Days 0 1  
Month to date cooling degree days 1 8  
Year to date cooling degree days 1433 1113  
Moisture  
Dew Point 36 °F    
Average Humidity 64    
Maximum Humidity 92    
Minimum Humidity 35    
Precipitation  
Precipitation 0.18 in 0.11 in 2.82 in (1910)
Month to date precipitation 1.11 0.60  
Year to date precipitation 30.07 33.02  
Snow  
Snow 0.00 in 0.00 in 0.00 in ()
Month to date snowfall 0.0 0.0  
Since 1 July snowfall 0.0 0.0  
Since 1 September snowfall 0.0 0.0  
Snow Depth 0.00 in    
Sea Level Pressure  
Sea Level Pressure 30.10 in    
Wind  
Wind Speed 8 mph (NW)    
Max Wind Speed 22 mph    
Max Gust Speed 26 mph    
Visibility 9 miles    
Events Rain    
T = Trace of Precipitation, MM = Missing Value Source: NWS Daily Summary

Daily Weather History Graph

Daily Weather History Graph

Search for Another Location

Airport or City:

Trip Planner

Search our weather history database for the weather conditions in past years. The results will help you decide how hot, cold, wet, or windy it might be!

Date:

Astronomy

Oct. 06, 2012 Rise Set
Actual Time 7:39 AM EDT 7:12 PM EDT
Civil Twilight 7:13 AM EDT 7:39 PM EDT
Nautical Twilight 6:42 AM EDT 8:10 PM EDT
Astronomical Twilight 6:11 AM EDT 8:41 PM EDT
Moon 11:29 PM EDT (10/6) 1:31 PM EDT (10/6)
Length of Visible Light 12h 26m
Length of Day
11h 32m
Waning Gibbous, 65% of the Moon is Illuminated
Oct 6
Waning Gibbous
Oct 8
Last Quarter
Oct 15
New
Oct 21
First Quarter
Oct 29
Full

Hourly Weather History & Observations

Time (EDT) Temp. Windchill Dew Point Humidity Pressure Visibility Wind Dir Wind Speed Gust Speed Precip Events Conditions
12:14 AM 44.6 °F 37.8 °F 42.8 °F 93% 30.07 in 8.0 mi NNW 15.0 mph - 0.00 in Rain Light Rain
12:52 AM 44.1 °F 40.1 °F 39.9 °F 85% 30.04 in 9.0 mi North 6.9 mph 24.2 mph 0.01 in Rain Light Rain
1:13 AM 42.8 °F 36.2 °F 41.0 °F 93% 30.04 in 4.0 mi NNW 12.7 mph - 0.15 in Rain Heavy Rain
1:33 AM 42.8 °F 35.8 °F 41.0 °F 93% 30.05 in 6.0 mi NNW 13.8 mph - 0.22 in Rain Light Rain
1:45 AM 42.8 °F 35.1 °F 39.2 °F 87% 30.05 in 10.0 mi NNW 16.1 mph - 0.23 in Rain Light Rain
1:52 AM 43.0 °F 35.1 °F 39.9 °F 89% 30.04 in 10.0 mi NNW 17.3 mph 26.5 mph 0.23 in   Overcast
2:52 AM 43.0 °F 37.2 °F 39.9 °F 89% 30.06 in 10.0 mi NW 10.4 mph - 0.00 in   Overcast
3:52 AM 43.0 °F 36.8 °F 39.9 °F 89% 30.06 in 10.0 mi NW 11.5 mph - 0.00 in   Overcast
4:49 AM 42.8 °F 38.6 °F 39.2 °F 87% 30.06 in 10.0 mi WNW 6.9 mph - N/A   Mostly Cloudy
4:52 AM 42.1 °F 36.6 °F 39.0 °F 89% 30.06 in 10.0 mi NW 9.2 mph - N/A   Overcast
5:52 AM 41.0 °F 35.8 °F 37.9 °F 89% 30.07 in 10.0 mi WNW 8.1 mph - N/A   Partly Cloudy
6:52 AM 39.9 °F 33.9 °F 36.0 °F 86% 30.10 in 10.0 mi West 9.2 mph - N/A   Clear
7:52 AM 37.9 °F 33.5 °F 36.0 °F 93% 30.12 in 6.0 mi West 5.8 mph - N/A   Scattered Clouds
8:52 AM 39.9 °F 34.5 °F 36.0 °F 86% 30.15 in 9.0 mi West 8.1 mph - N/A   Scattered Clouds
9:52 AM 43.0 °F 37.7 °F 36.0 °F 76% 30.17 in 10.0 mi WNW 9.2 mph - N/A   Scattered Clouds
10:52 AM 45.0 °F 41.8 °F 37.0 °F 74% 30.17 in 10.0 mi WSW 5.8 mph - N/A   Scattered Clouds
11:52 AM 50.0 °F - 36.0 °F 59% 30.15 in 10.0 mi WNW 8.1 mph - N/A   Scattered Clouds
1:52 PM 52.0 °F - 33.1 °F 49% 30.11 in 10.0 mi Calm Calm - N/A   Mostly Cloudy
2:52 PM 55.0 °F - 33.1 °F 43% 30.09 in 10.0 mi Variable 5.8 mph - N/A   Mostly Cloudy
3:52 PM 55.0 °F - 28.0 °F 35% 30.09 in 10.0 mi West 5.8 mph 17.3 mph N/A   Mostly Cloudy
4:52 PM 55.9 °F - 32.0 °F 40% 30.09 in 8.0 mi West 8.1 mph - N/A   Mostly Cloudy
5:52 PM 54.0 °F - 30.0 °F 40% 30.10 in 10.0 mi WNW 9.2 mph - N/A   Mostly Cloudy
6:52 PM 52.0 °F - 30.9 °F 45% 30.11 in 10.0 mi WNW 8.1 mph - N/A   Mostly Cloudy
7:52 PM 51.1 °F - 34.0 °F 52% 30.13 in 10.0 mi WNW 5.8 mph - N/A   Mostly Cloudy
8:52 PM 51.1 °F - 33.1 °F 50% 30.13 in 10.0 mi NW 8.1 mph - N/A   Mostly Cloudy
9:52 PM 50.0 °F - 34.0 °F 54% 30.13 in 10.0 mi NW 8.1 mph - N/A   Overcast
10:52 PM 50.0 °F - 35.1 °F 57% 30.14 in 10.0 mi NNW 9.2 mph - N/A   Overcast
11:52 PM 48.0 °F - 35.1 °F 61% 30.13 in 10.0 mi North 9.2 mph - N/A   Overcast